EDT,Max TemperatureF,Mean TemperatureF,Min TemperatureF,Max Dew PointF,MeanDew PointF,Min DewpointF,Max Humidity, Mean Humidity, Min Humidity, Max Sea Level PressureIn, Mean Sea Level PressureIn, Min Sea Level PressureIn, Max VisibilityMiles, Mean VisibilityMiles, Min VisibilityMiles, Max Wind SpeedMPH, Mean Wind SpeedMPH, Max Gust SpeedMPH,PrecipitationIn, CloudCover, Events, WindDirDegrees
2013-10-1,73,60,46,64,58,46,100,90,69,30.01,29.97,29.92,10,7,0,20,3,22,0.00,3,Fog,212
2013-10-2,75,62,46,61,54,46,100,80,38,30.09,30.04,29.94,10,9,2,9,4,,0.00,0,,306
2013-10-3,77,60,44,68,58,45,100,86,60,30.10,30.02,29.94,10,9,4,13,3,16,0.00,3,,164
2013-10-4,78,70,62,68,66,63,100,91,65,30.05,30.00,29.96,10,8,2,8,3,,0.00,6,Rain,238
2013-10-5,71,66,60,70,65,61,100,98,88,30.06,30.01,29.92,10,6,2,10,3,,0.00,8,Rain,108
2013-10-6,71,64,55,68,65,55,100,96,83,29.90,29.77,29.65,10,8,3,13,7,20,0.00,7,Rain,182
2013-10-7,55,48,41,55,49,41,100,91,72,30.10,29.81,29.67,10,10,2,13,4,21,0.00,5,Rain,242
2013-10-8,64,50,35,50,44,36,100,84,49,30.30,30.24,30.11,10,8,1,8,1,,0.00,1,,204
2013-10-9,69,52,35,55,45,36,100,82,49,30.34,30.29,30.25,10,8,0,9,2,,0.00,0,Fog,153
2013-10-10,69,52,35,54,45,36,100,83,38,30.25,30.21,30.14,10,7,0,7,1,,0.00,1,Fog,121
2013-10-11,71,52,33,54,45,34,100,83,38,30.18,30.13,30.09,10,6,0,7,1,,0.00,2,Fog,73
2013-10-12,75,56,37,61,51,37,100,81,41,30.13,30.10,30.06,10,8,0,10,2,,0.00,3,Fog,155
2013-10-13,66,54,42,59,50,43,100,82,46,30.34,30.24,30.10,10,8,0,8,3,,0.00,3,Fog,312
2013-10-14,59,48,37,48,45,37,100,87,63,30.41,30.35,30.27,10,9,1,12,4,,0.00,2,,352
2013-10-15,64,48,33,61,49,34,100,92,73,30.27,30.07,29.84,10,7,0,12,3,17,0.00,4,Fog-Rain,161
2013-10-16,62,56,51,63,53,46,100,84,55,29.89,29.83,29.79,10,8,2,14,7,21,0.00,6,Rain,232
2013-10-17,53,50,48,52,49,46,100,95,88,29.89,29.82,29.74,10,9,3,13,3,21,0.00,8,Rain,227
2013-10-18,60,50,41,46,43,39,100,80,45,29.91,29.86,29.79,10,10,5,13,5,18,0.00,1,,227
2013-10-19,50,44,39,45,42,37,100,94,71,29.89,29.80,29.71,10,9,3,13,2,22,0.00,5,Rain,229
2013-10-20,55,46,37,46,40,36,100,81,51,29.90,29.87,29.82,10,10,7,14,4,16,0.00,6,,208
2013-10-21,55,47,37,50,45,36,100,82,72,29.86,29.82,29.78,10,10,4,16,10,21,0.00,7,Rain,213
2013-10-22,46,38,30,37,31,28,93,74,53,29.88,29.86,29.82,10,10,10,13,4,22,0.00,5,,247
2013-10-23,46,39,32,34,30,25,100,77,46,29.90,29.84,29.79,10,10,10,14,4,21,0.00,3,,297
2013-10-24,46,37,28,34,31,28,100,80,53,30.12,29.98,29.89,10,10,10,16,4,23,0.00,2,,272
2013-10-25,48,39,30,36,31,27,100,78,46,30.29,30.20,30.09,10,10,5,13,5,20,0.00,4,,255
2013-10-26,50,44,37,41,33,28,100,71,54,30.08,29.85,29.74,10,10,7,17,10,29,0.00,7,Rain,229
2013-10-27,50,41,32,37,33,30,100,79,50,30.04,30.00,29.95,10,10,10,10,4,18,0.00,2,,235
2013-10-28,46,37,28,41,34,28,100,82,66,30.40,30.24,30.03,10,10,10,14,4,21,0.00,6,,6
2013-10-29,44,40,37,36,31,27,87,69,49,30.45,30.38,30.27,10,10,10,7,3,,0.00,7,Rain,67
2013-10-30,60,44,28,48,39,28,100,81,52,30.26,30.14,29.99,10,9,4,10,2,,0.00,1,,155
2013-10-31,60,56,51,61,57,48,100,99,82,29.97,29.60,29.17,10,5,2,21,11,33,0.00,8,Rain,184